Terminal Aerodrome Forecast
Issued by NWS

Home | Current Version | Previous Version | Text Only | Print | Product List | Glossary On
Versions: 1 2 3 4 5 6 7 8 9 10 11 12 13 14 15 16 17 18 19 20 21 22 23 24 25 26 27 28 29 30 31 32 33 34 35 36 37 38 39 40 41 42 43 44 45 46 47 48 49 50
000
FTUS45 KGJT 220539
TAFVEL
TAF
KVEL 220539Z 2206/2306 32005KT P6SM SCT060 OVC080 WS020/32035KT
     FM220900 35008KT 1SM BR BKN006 OVC012
     FM221200 VRB03KT 1/2SM FG BKN003 WS020/32035KT
     FM221700 08005KT P6SM SCT010 OVC030 WS020/32035KT
     FM230300 32003KT P6SM SCT030 BKN060=

USA.gov is the U.S. government's official web portal to all federal, state and local government web resources and services.